Regional Weather Roundup
Issued by NWS Portland, ME

Home | Current Version | Previous Version | Text Only | Print | Product List | Glossary On
Versions: 1 2 3 4 5 6 7 8 9 10 11 12 13 14 15 16 17 18 19 20 21 22 23 24 25 26 27 28 29 30 31 32 33 34 35 36 37 38 39 40 41 42 43 44 45 46 47 48 49 50
000
ASUS41 KGYX 231510
RWRGYX
WEATHER ROUNDUP FOR MAINE AND NEW HAMPSHIRE
NATIONAL WEATHER SERVICE GRAY ME
1000 AM EST MON JAN 23 2017

MEZ002-005-006-010-012-015-018-020-021-024-026-027-029-231600-
MAINE

CITY           SKY/WX    TMP DP  RH WIND       PRES   REMARKS
PORTLAND       CLOUDY    31  21  66 NE15      30.14R
SANFORD        CLOUDY    30  23  75 NE13      30.12R WCI  20
BAR HARBOR     CLOUDY    28  19  69 NE12      30.19F WCI  18
WISCASSET      CLOUDY    30  19  63 VRB7      30.17F
ROCKLAND       CLOUDY    29  22  75 NE15G24   30.16S WCI  18
FRYEBURG       CLOUDY    28  19  69 E10G17    30.14S WCI  19
LEWISTONAUBURN CLOUDY    28  21  75 NE8       30.16R
AUGUSTA        CLOUDY    27  17  66 NE7       30.17F
WATERVILLE     CLOUDY    27  19  72 VRB7      30.15F
BANGOR         CLOUDY    27  19  72 NE10      30.20F WCI  17
GREENVILLE       N/A     20  15  81 SE5       30.10R
MILLINOCKET    CLOUDY    24  16  71 NE8       30.23R
HOULTON        CLOUDY    24  17  74 N9        30.19S
PRESQUE ISLE   CLOUDY    24  15  68 N10       30.22S WCI  14
FRENCHVILLE    SUNNY     19  11  70 N9        30.18F
CARIBOU        CLOUDY    22  14  71 N8        30.19S
$$

NHZ002-005-008-009-011-012-014-231600-
NEW HAMPSHIRE

CITY           SKY/WX    TMP DP  RH WIND       PRES   REMARKS
PORTSMOUTH     CLOUDY    32  23  71 NE12      30.09R
ROCHESTER      CLOUDY    30  20  66 NE8       30.10R
NASHUA         CLOUDY    33  26  75 NE8       30.09R
MANCHESTER     CLOUDY    32  22  66 NE13      30.07R
CONCORD        CLOUDY    31  21  66 NE13      30.09R
LACONIA        CLOUDY    29  21  72 NE12      30.11R WCI  19
PLYMOUTH       CLOUDY    31  21  68 E10       30.09S
BERLIN         CLOUDY    28  17  63 SE7       30.07F
WHITEFIELD     MOSUNNY   29  18  63 SE13G20   30.04S WCI  19
JAFFREY        CLOUDY    30  24  78 VRB7      30.02R
KEENE          CLOUDY    31  25  78 NE9       30.06R
LEBANON        CLOUDY    32  22  66 VRB5      30.07R
MT WASHINGTON  PTSUNNY   19  -2  38 SE40        N/A  WCI  -2
$$

VTZ005-007-008-231600-
VERMONT

CITY           SKY/WX    TMP DP  RH WIND       PRES   REMARKS
ST JOHNSBURY     N/A     31  21  66 MISG      30.04F
MONTPELIER     CLOUDY    30  25  81 SE6       30.05S
BURLINGTON     CLOUDY    37  27  67 SE16      30.01S
$$

MAZ007-012-024-CTZ003-RIZ002-NYZ038-NYZ072-231600-
SOUTHERN NEW ENGLAND AND NY

CITY           SKY/WX    TMP DP  RH WIND       PRES   REMARKS
BOSTON         FLURRIES  36  34  92 E21       30.07
WORCESTER      LGT SNOW  29  27  92 NE12G21   29.98R FOG     WCI  19
NANTUCKET      CLOUDY    40  30  67 E23G32    29.95R
PROVIDENCE     PTSUNNY   39  31  72 NE15      29.99S
HARTFORD       CLOUDY    35  31  85 NE15      29.98F
ALBANY         CLOUDY    38  26  62 E10       29.98R
NEW YORK CITY  CLOUDY    42  30  62 E29G43    29.85S
$$

ANZ081-ANZ082-ANZ150-NHZ014-MEZ023>029-231600-
COASTAL MARINE OBSERVATIONS

STATION/POSITION TIME  TEMP    WIND        PRES    WAVE
                       AIR SEA DIR/SP/G            HT/PER
                 (UTC) (F)     (DEG/KT/KT) (MB)    (FT/S)
MOUNT DESERT ROC 1500   33                 1020.1F
CASHES LEDGE BUO 1450   36 45   80/ 25/ 31 1018.4    8/ 7
GEORGES BANK BUO 1450   42 43              1013.6   11/ 8
$$

.............KEY..............
   WCI - WIND CHILL
   TC  - TEMPERATURE IN CELSIUS
   VSB - VISIBILITY IN MILES
   HX  - HEAT INDEX
   FAIR- INDICATES FEW OR NO CLOUDS BELOW 12,000 FT, WITH NO
         SIGNIFICANT WEATHER AND/OR OBSTRUCTIONS TO VISIBILITY.






USA.gov is the U.S. government's official web portal to all federal, state and local government web resources and services.